Waarnemingen

Advertentie
Mijn weer
Charleville, Frankrijk (7075): temperatuur & dauwpunt: 18.02.2017 09:00:00 - 24.02.2017 09:00:00 (CET)Charleville, Frankrijk (7075): temperatuur 5cm: 18.02.2017 09:00:00 - 24.02.2017 09:00:00 (CET)Charleville, Frankrijk (7075): temperatuur -20cm & temperatuur -100cm: 18.02.2017 09:00:00 - 24.02.2017 09:00:00 (CET)Charleville, Frankrijk (7075): windsnelheid & windstoten: 18.02.2017 09:00:00 - 24.02.2017 09:00:00 (CET)Charleville, Frankrijk (7075): windrichting: 18.02.2017 09:00:00 - 24.02.2017 09:00:00 (CET)Charleville, Frankrijk (7075): luchtdruk: 18.02.2017 09:00:00 - 24.02.2017 09:00:00 (CET)Charleville, Frankrijk (7075): zicht: 18.02.2017 09:00:00 - 24.02.2017 09:00:00 (CET)Charleville, Frankrijk (7075): Zonneschijnduur: 18.02.2017 09:00:00 - 24.02.2017 09:00:00 (CET)Charleville, Frankrijk (7075): neerslag: 18.02.2017 09:00:00 - 24.02.2017 09:00:00 (CET)
Datum & Tijd tt [°C] td [°C] tt 5cm [°C] tt -20cm [°C] tt -100cm [°C] ff [km/u] ff [kn] fx [km/u] fx [kn] dd ppp [hPa] vv [km] sd [min] rr [mm]
24.02.2017 09:00:00 3,8 2,3 1,9 6,9 6,8 3 1 6 3 ZZW 1014,1 20 0 0,0
24.02.2017 08:00:00 3,0 1,7 1,3 7,0 6,8 2 1 23 12 NNW 1013,3 20 0 0,0
24.02.2017 07:00:00 4,1 1,6 3,5 7,0 6,8 13 7 25 13 NW 1012,5 20 0 0,0
24.02.2017 06:00:00 4,8 2,0 3,4 7,1 6,8 13 7 28 15 W 1011,4 20 0 0,0
24.02.2017 05:00:00 4,7 2,6 2,8 7,1 6,8 10 6 23 12 WNW 1010,7 20 0 0,0
24.02.2017 04:00:00 4,6 2,1 1,9 7,1 6,8 9 5 17 9 W 1009,8 20 0 0,0
24.02.2017 03:00:00 4,6 2,3 2,9 7,2 6,8 9 5 39 21 W 1009,1 20 0 0,0
24.02.2017 02:00:00 5,4 2,4 3,3 7,2 6,8 19 10 47 26 W 1008,3 20 0 0,0
24.02.2017 01:00:00 5,5 3,0 4,2 7,3 6,7 26 14 65 35 WNW 1007,1 16 0 0,6
24.02.2017 00:00:00 7,1 1,8 6,4 7,3 6,7 25 14 64 34 W 1005,5 20 0 0,0
23.02.2017 23:00:00 7,3 1,6 6,5 7,3 6,7 27 14 63 34 W 1004,6 20 0 0,0
23.02.2017 22:00:00 7,5 1,6 6,8 7,4 6,7 28 15 59 32 W 1003,9 20 0 0,0
23.02.2017 21:00:00 7,9 1,7 7,0 7,4 6,7 25 14 53 29 W 1003,1 20 0 0,0
23.02.2017 20:00:00 8,4 1,5 7,4 7,4 6,7 33 18 63 34 W 1002,2 20 0 0,0
23.02.2017 19:00:00 8,6 1,9 7,4 7,4 6,7 25 14 66 36 WZW 1001,6 20 0 0,0
23.02.2017 18:00:00 9,2 2,5 7,8 7,4 6,7 21 11 68 37 W 1000,5 20 4 0,0
23.02.2017 17:00:00 10,3 4,4 10,0 7,3 6,7 21 11 65 35 WZW 999,7 20 21 0,0
23.02.2017 16:00:00 10,1 5,1 8,1 7,3 6,7 29 16 67 36 WZW 999,4 20 7 1,4
23.02.2017 15:00:00 8,7 7,5 8,1 7,3 6,7 23 12 59 32 ZW 999,2 6 0 1,2
23.02.2017 14:00:00 8,7 6,5 8,0 7,3 6,7 23 12 48 26 ZZW 1000,1 15 0 0,2
23.02.2017 13:00:00 8,5 6,5 7,8 7,3 6,7 26 14 50 27 ZZW 1001,4 15 0 0,0
23.02.2017 12:00:00 8,7 5,6 8,7 7,3 6,7 22 12 66 35 ZW 1002,8 20 0 0,0
23.02.2017 11:00:00 8,4 5,5 8,2 7,3 6,7 20 11 42 23 ZZW 1003,5 20 0 0,0
23.02.2017 10:00:00 8,0 5,5 8,1 7,4 6,7 17 9 41 22 ZZW 1004,6 20 0 0,0
23.02.2017 09:00:00 8,1 5,6 8,0 7,4 6,7 16 9 36 20 ZZW 1005,5 20 0 0,0
23.02.2017 08:00:00 8,2 5,5 8,0 7,4 6,7 15 8 35 19 ZZW 1006,5 20 0 0,0
23.02.2017 07:00:00 8,4 5,7 8,1 7,4 6,7 13 7 32 18 ZZW 1007,0 20 0 0,0
23.02.2017 06:00:00 8,6 5,9 8,3 7,4 6,7 13 7 42 23 ZW 1008,0 20 0 0,0
23.02.2017 05:00:00 8,8 6,2 8,4 7,4 6,7 12 7 35 19 ZW 1008,7 20 0 0,0
23.02.2017 04:00:00 8,7 6,7 8,4 7,4 6,6 11 6 33 18 ZZW 1009,5 17 0 0,0
23.02.2017 03:00:00 9,3 6,6 8,9 7,4 6,6 18 10 39 21 ZW 1010,5 20 0 0,0
23.02.2017 02:00:00 9,5 6,9 8,5 7,4 6,6 21 11 41 22 ZW 1011,1 20 0 0,0
23.02.2017 01:00:00 9,3 7,2 8,5 7,4 6,6 18 10 33 18 ZW 1011,5 17 0 0,0
23.02.2017 00:00:00 9,4 7,3 8,5 7,4 6,6 16 9 34 18 ZW 1011,9 16 0 0,0
22.02.2017 23:00:00 9,1 7,7 8,4 7,4 6,6 17 9 38 20 WZW 1012,2 9 0 0,0
22.02.2017 22:00:00 9,0 7,9 8,5 7,4 6,6 17 9 37 20 WZW 1012,6 7 0 0,0
22.02.2017 21:00:00 9,1 8,0 8,6 7,4 6,6 17 9 36 19 ZW 1012,7 8 0 0,2
22.02.2017 20:00:00 9,3 8,2 8,8 7,4 6,6 17 9 37 20 WZW 1012,8 4,9 0 0,4
22.02.2017 19:00:00 9,4 8,3 8,9 7,3 6,6 16 9 37 20 WZW 1012,8 9 0 0,0
22.02.2017 18:00:00 9,4 8,3 8,9 7,3 6,6 16 8 33 18 WZW 1012,7 10 0 0,0
22.02.2017 17:00:00 9,5 8,4 9,2 7,3 6,6 15 8 35 19 WZW 1012,8 10 0 0,2
22.02.2017 16:00:00 9,9 8,2 9,3 7,3 6,6 17 9 34 18 WZW 1012,9 20 0 0,0
22.02.2017 15:00:00 9,6 8,5 9,4 7,2 6,6 16 9 42 23 WZW 1013,2 9 0 0,2
22.02.2017 14:00:00 9,5 8,4 9,4 7,2 6,6 19 10 40 22 WZW 1013,9 10 0 0,0
22.02.2017 13:00:00 9,4 8,3 9,2 7,2 6,6 18 10 37 20 WZW 1014,4 12 0 0,2
22.02.2017 12:00:00 9,2 8,0 8,8 7,2 6,6 18 10 36 20 WZW 1014,8 8 0 0,2
22.02.2017 11:00:00 9,0 7,6 8,9 7,2 6,6 16 9 36 19 WZW 1014,9 8 0 0,0
22.02.2017 10:00:00 9,4 7,0 9,0 7,2 6,6 18 10 37 20 WZW 1014,8 20 0 0,0
22.02.2017 09:00:00 9,4 7,0 8,9 7,2 6,6 18 10 43 23 WZW 1014,9 19 0 0,0
22.02.2017 08:00:00 9,4 7,0 8,7 7,2 6,6 16 9 37 20 WZW 1014,7 20 0 0,0
22.02.2017 07:00:00 9,3 7,2 8,8 7,2 6,5 19 10 36 19 ZW 1014,3 20 0 0,0
22.02.2017 06:00:00 9,4 7,3 8,5 7,2 6,6 19 10 41 22 ZW 1014,5 20 0 0,0
22.02.2017 05:00:00 9,3 7,6 8,7 7,2 6,6 17 9 40 22 WZW 1015,0 18 0 0,0
22.02.2017 04:00:00 9,6 7,9 9,0 7,2 6,6 14 8 41 22 WZW 1015,3 16 0 0,0
22.02.2017 03:00:00 9,9 8,3 9,4 7,2 6,5 20 11 50 27 WZW 1016,1 19 0 0,0
22.02.2017 02:00:00 10,1 8,5 9,5 7,1 6,5 15 8 33 18 WZW 1016,3 20 0 0,0
22.02.2017 01:00:00 10,2 8,6 9,4 7,1 6,6 12 7 40 22 WZW 1016,8 20 0 0,0
22.02.2017 00:00:00 10,2 9,0 9,6 7,1 6,6 18 10 45 25 W 1017,2 7 0 0,6
21.02.2017 23:00:00 10,3 9,5 9,8 7,1 6,5 13 7 35 19 WZW 1017,2 6 0 0,6
21.02.2017 22:00:00 10,2 9,4 9,8 7,1 6,5 9 5 38 21 W 1017,7 2,3 0 0,6
21.02.2017 21:00:00 10,3 9,5 9,9 7,0 6,5 12 6 25 13 WZW 1017,8 7 0 0,2
21.02.2017 20:00:00 10,3 9,4 9,9 7,0 6,5 10 5 31 17 WZW 1018,0 5 0 0,0
21.02.2017 19:00:00 10,2 9,4 9,8 6,9 6,5 13 7 28 15 WZW 1018,2 9 0 0,2
21.02.2017 18:00:00 10,2 9,3 9,9 6,9 6,5 13 7 26 14 WZW 1018,3 11 0 0,0
21.02.2017 17:00:00 10,2 9,3 10,4 6,8 6,5 13 7 24 13 WZW 1018,3 11 0 0,0
21.02.2017 16:00:00 10,2 9,4 10,7 6,7 6,5 11 6 27 14 WZW 1018,4 5 0 0,0
21.02.2017 15:00:00 10,6 9,5 11,6 6,7 6,5 13 7 28 15 WZW 1018,7 10 0 0,0
21.02.2017 14:00:00 10,3 9,4 11,3 6,6 6,5 11 6 33 18 W 1019,1 5 0 0,2
21.02.2017 13:00:00 10,2 9,0 11,8 6,5 6,5 16 9 32 17 W 1019,4 8 0 0,0
21.02.2017 12:00:00 10,1 9,2 10,9 6,5 6,5 16 9 42 23 W 1019,7 6 0 0,4
21.02.2017 11:00:00 10,1 9,0 10,4 6,5 6,5 24 13 41 22 W 1019,5 5 0 0,2
21.02.2017 10:00:00 10,2 9,3 10,1 6,4 6,5 16 9 27 14 W 1019,0 13 0 0,0
21.02.2017 09:00:00 9,8 9,2 9,4 6,4 6,5 11 6 25 13 W 1018,9 4,1 0 0,0
21.02.2017 08:00:00 9,7 9,1 9,4 6,4 6,5 12 7 26 14 W 1018,5 2,9 0 0,2
21.02.2017 07:00:00 9,9 9,1 9,5 6,3 6,5 17 9 30 16 W 1018,2 5 0 0,0
21.02.2017 06:00:00 10,1 9,2 9,5 6,3 6,5 18 10 31 17 W 1017,9 11 0 0,0
21.02.2017 05:00:00 10,0 9,4 9,6 6,2 6,5 17 9 34 18 W 1018,0 3,8 0 0,2
21.02.2017 04:00:00 10,2 9,4 9,7 6,2 6,5 14 8 30 16 W 1018,1 7 0 0,2
21.02.2017 03:00:00 10,3 9,7 9,9 6,2 6,5 14 8 32 18 W 1018,5 3,2 0 0,0
21.02.2017 02:00:00 10,5 9,9 9,9 6,2 6,5 14 8 30 16 W 1018,7 4,6 0 0,0
21.02.2017 01:00:00 10,4 9,8 9,8 6,1 6,5 13 7 25 14 W 1019,3 9 0 0,0
21.02.2017 00:00:00 10,1 9,6 9,5 6,1 6,5 14 8 27 14 W 1019,4 2,9 0 0,2
20.02.2017 23:00:00 9,8 9,5 9,5 6,1 6,5 8 4 20 11 W 1019,6 1,8 0 0,0
20.02.2017 22:00:00 9,8 9,3 9,5 6,1 6,5 9 5 23 12 WZW 1019,7 2,3 0 0,0
20.02.2017 21:00:00 9,7 9,1 9,3 6,0 6,5 12 6 32 17 WZW 1019,8 3,9 0 0,0
20.02.2017 20:00:00 9,7 8,9 9,0 6,0 6,5 15 8 32 17 WZW 1020,0 7 0 0,0
20.02.2017 19:00:00 9,4 8,8 8,8 6,0 6,5 14 8 40 21 WZW 1020,0 4,0 0 0,0
20.02.2017 18:00:00 9,1 8,5 8,9 5,9 6,5 6 3 25 14 ZW 1019,9 3,4 0 0,0
20.02.2017 17:00:00 9,1 8,3 8,9 5,9 6,5 11 6 28 15 WZW 1019,8 5 0 0,0
20.02.2017 16:00:00 9,1 8,2 8,9 5,8 6,5 11 6 27 14 WZW 1020,1 7 0 0,0
20.02.2017 15:00:00 9,0 8,2 8,9 5,8 6,5 8 5 23 12 ZW 1020,4 6 0 0,2
20.02.2017 14:00:00 8,7 7,8 8,9 5,7 6,5 11 6 28 15 ZW 1020,9 9 0 0,0
20.02.2017 13:00:00 8,4 7,5 8,5 5,7 6,5 11 6 24 13 ZW 1021,7 7 0 0,0
20.02.2017 12:00:00 8,3 7,4 8,4 5,7 6,5 10 5 24 13 ZW 1022,3 6 0 0,0
20.02.2017 11:00:00 7,8 7,2 8,0 5,6 6,5 8 4 18 10 ZZW 1022,4 4,7 0 0,0
20.02.2017 10:00:00 7,6 6,8 7,1 5,6 6,4 8 4 22 12 ZW 1022,4 9 0 0,0
20.02.2017 09:00:00 7,0 6,3 6,6 5,6 6,5 11 6 24 13 ZW 1022,4 4,4 0 0,0
20.02.2017 08:00:00 6,8 6,2 6,6 5,6 6,5 9 5 21 11 Z 1022,2 4,3 0 0,0
20.02.2017 07:00:00 7,1 6,5 6,8 5,6 6,5 6 3 19 10 ZW 1022,8 4,8 0 0,0
20.02.2017 06:00:00 7,0 6,4 6,5 5,6 6,4 10 6 22 12 ZW 1022,4 3,4 0 0,0
20.02.2017 05:00:00 6,8 6,2 6,5 5,6 6,4 5 3 15 8 ZZW 1022,7 2,5 0 0,0
20.02.2017 04:00:00 7,0 6,1 6,2 5,6 6,5 4 2 15 8 ZW 1023,1 3,2 0 0,0
20.02.2017 03:00:00 7,0 6,1 6,4 5,6 6,4 5 3 11 6 ZZW 1023,7 4,5 0 0,0
20.02.2017 02:00:00 7,0 5,9 6,4 5,6 6,4 3 1 17 9 WZW 1024,2 8 0 0,0
20.02.2017 01:00:00 7,0 6,3 6,3 5,6 6,4 6 3 10 5 ZW 1024,3 2,9 0 0,0
20.02.2017 00:00:00 7,0 5,9 6,5 5,5 6,4 3 1 14 7 WNW 1024,4 6 0 0,0
19.02.2017 23:00:00 7,6 5,2 5,0 5,5 6,4 8 4 17 9 W 1024,6 17 0 0,0
19.02.2017 22:00:00 5,6 4,1 5,0 5,5 6,4 1 1 8 4 NO 1024,4 11 0 0,0
19.02.2017 21:00:00 7,4 4,9 6,5 5,5 6,4 7 4 12 7 WNW 1024,3 18 0 0,0
19.02.2017 20:00:00 7,8 4,7 7,0 5,4 6,4 8 4 20 11 W 1023,7 19 0 0,0
19.02.2017 19:00:00 8,4 5,0 7,5 5,3 6,4 10 5 18 10 W 1023,5 15 0 0,0
19.02.2017 18:00:00 8,8 5,0 8,1 5,2 6,4 6 4 12 7 W 1023,3 15 0 0,0
19.02.2017 17:00:00 9,4 4,8 9,8 5,1 6,4 5 3 24 13 WZW 1022,9 16 16 0,0
19.02.2017 16:00:00 9,5 4,1 10,7 5,0 6,4 14 7 23 12 W 1023,5 18 13 0,0
19.02.2017 15:00:00 9,7 3,0 13,5 4,9 6,4 12 7 27 14 WZW 1023,4 19 56 0,0
19.02.2017 14:00:00 9,3 2,8 10,9 4,9 6,4 14 7 27 15 WZW 1023,8 19 50 0,0
19.02.2017 13:00:00 5,0 4,4 5,2 4,9 6,4 4 2 8 5 O 1025,0 8 40 0,0
19.02.2017 12:00:00 1,5 1,4 3,0 4,9 6,4 1 1 7 4 NW 1026,5 3,5 8 0,0
19.02.2017 11:00:00 -0,7 -0,8 -0,5 5,0 6,4 2 1 6 4 ZZW 1026,6 0,2 0 0,0
19.02.2017 10:00:00 -2,3 -2,6 -2,2 5,0 6,4 2 1 8 4 O 1026,7 0,3 0 0,0
19.02.2017 09:00:00 -3,5 -3,9 -3,7 5,1 6,4 3 2 6 3 OZO 1026,8 0,6 0 0,0
19.02.2017 08:00:00 -3,9 -4,3 -3,8 5,2 6,4 2 1 4 2 ZO 1026,6 0,3 0 0,0
19.02.2017 07:00:00 -3,4 -3,7 -3,4 5,3 6,4 2 1 5 3 ZZO 1026,1 0,3 0 0,0
19.02.2017 06:00:00 -3,5 -3,8 -3,5 5,4 6,4 3 2 6 3 OZO 1026,1 0,2 0 0,0
19.02.2017 05:00:00 -3,2 -3,5 -3,8 5,5 6,4 4 2 6 4 O 1026,1 0,3 0 0,0
19.02.2017 04:00:00 -3,7 -4,1 -7,7 5,5 6,4 3 2 6 4 Z 1026,5 0,4 0 0,0
19.02.2017 03:00:00 -4,2 -4,6 -8,5 5,7 6,4 3 2 6 3 ONO 1026,9 9 0 0,0
19.02.2017 02:00:00 -4,0 -4,3 -7,4 5,8 6,4 5 3 6 3 WNW 1027,2 0,7 0 0,0
19.02.2017 01:00:00 -4,2 -4,6 -7,8 5,8 6,4 2 1 4 2 ZZO 1027,2 0,4 0 0,0
19.02.2017 00:00:00 -3,2 -3,6 -7,3 5,9 6,4 2 1 4 2 W 1027,3 0,8 0 0,0
18.02.2017 23:00:00 -2,5 -2,9 -6,8 5,9 6,3 1 0 6 3 WNW 1027,3 1,0 0 0,0
18.02.2017 22:00:00 -1,8 -2,4 -6,3 6,0 6,4 1 1 3 1 O 1027,1 0,3 0 0,0
18.02.2017 21:00:00 -0,7 -1,5 -5,0 6,0 6,4 1 1 6 4 W 1026,8 5 0 0,0
18.02.2017 20:00:00 0,0 -1,0 -4,4 6,0 6,4 3 2 6 3 ZO 1026,7 13 0 0,0
18.02.2017 19:00:00 1,8 -0,1 -2,8 6,0 6,4 5 3 7 4 ZO 1026,6 14 0 0,0
18.02.2017 18:00:00 6,5 2,0 1,6 5,9 6,3 1 1 7 4 WZW 1026,3 20 39 0,0
18.02.2017 17:00:00 10,0 2,6 10,0 5,8 6,3 4 2 8 4 ZZO 1025,9 20 44 0,0
18.02.2017 16:00:00 10,0 1,1 10,7 5,7 6,3 3 2 10 5 OZO 1026,2 15 31 0,0
18.02.2017 15:00:00 10,6 1,7 10,7 5,7 6,4 4 2 14 7 ZZO 1026,2 20 29 0,0
18.02.2017 14:00:00 9,2 1,6 10,3 5,5 6,3 9 5 21 12 OZO 1026,8 20 40 0,0
18.02.2017 13:00:00 9,8 3,1 10,7 5,5 6,3 12 6 21 11 O 1027,4 19 47 0,0
18.02.2017 12:00:00 7,5 5,0 9,1 5,5 6,3 9 5 15 8 OZO 1028,3 15 0 0,0
18.02.2017 11:00:00 6,1 6,0 6,3 5,5 6,4 4 2 8 5 OZO 1028,2 7 0 0,0
18.02.2017 10:00:00 5,1 5,1 5,0 5,5 6,3 2 1 6 3 ZO 1028,3 0,8 0 0,0
18.02.2017 09:00:00 4,3 4,3 3,7 5,6 6,3 3 2 5 3 ZO 1028,4 0,1 0 0,0

tt = temperatuur
td = dauwpunt
tt 5cm = temperatuur 5cm
tt -20cm = temperatuur -20cm
tt -100cm = temperatuur -100cm
ff = windsnelheid
fx = windstoten
dd = windrichting
ppp = luchtdruk
vv = zicht
sd = Zonneschijnduur
rr = neerslag

Weerstations in de omgeving